Location: Le Gr�zie
(43.6000°N, 13.5000°E)
Time: 09:55:42
(UTC+00:00)

Spot 2 Rocket - Visible Passes

Search period start: 03 August 2020 00:00
Search period end: 13 August 2020 00:00
Orbit: 757 x 772 km, 98.6° (Epoch: 02 August)

Date Brightness Start Highest point End Pass type
(mag) Time Alt. Az. Time Alt. Az. Time Alt. Az.
03 Aug 3.6 19:57:18 21° SSE 20:00:44 66° ENE 20:05:49 10° N visible
03 Aug 5.8 21:37:30 11° WSW 21:40:10 16° W 21:43:12 10° NW visible
04 Aug 4.5 19:20:02 12° SE 19:24:03 31° ENE 19:28:31 10° N visible
04 Aug 4.8 21:00:14 21° SSW 21:02:56 34° W 21:07:34 10° NNW visible
05 Aug 3.6 20:22:59 26° S 20:25:55 74° WSW 20:31:03 10° NNW visible
06 Aug 3.8 19:45:44 20° SE 19:49:06 52° ENE 19:54:03 10° N visible
06 Aug 5.5 21:25:55 15° SW 21:28:21 20° W 21:32:06 10° NW visible
07 Aug 4.8 19:08:28 10° ESE 19:12:29 25° ENE 19:16:36 10° N visible
07 Aug 4.4 20:48:40 25° SSW 20:51:11 43° W 20:56:04 10° NNW visible
08 Aug 3.4 20:11:25 27° SSE 20:14:15 87° ENE 20:19:23 10° NNW visible
08 Aug 6.0 21:52:10 10° WSW 21:53:52 12° W 21:55:34 10° WNW visible
09 Aug 4.1 19:34:09 18° SE 19:37:29 41° ENE 19:42:15 10° N visible
09 Aug 5.2 21:14:22 19° SW 21:16:34 26° W 21:20:48 10° NW visible
10 Aug 5.0 18:57:16 10° ESE 19:00:56 20° ENE 19:04:36 10° NNE visible
10 Aug 4.0 20:37:07 30° SSW 20:39:28 56° W 20:44:30 10° NNW visible
11 Aug 3.5 19:59:52 28° SSE 20:02:35 68° ENE 20:07:39 10° N visible
11 Aug 5.8 21:40:04 13° WSW 21:42:02 15° W 21:44:57 10° NW visible
12 Aug 4.4 19:22:37 16° ESE 19:25:54 32° ENE 19:30:23 10° N visible
12 Aug 4.8 21:02:49 25° SW 21:04:48 33° W 21:09:23 10° NNW visible
